GFSSW_250_rhum_042.txt.gz
RH
39 36 42 46 50 40 38 33 31 30 25 25 24 19 37 47 45 46 52 29 25 21 24 22 19 27 27 32 24 20 21 21 27 25 25 25 25 30 34 45 52 54 53 69 86
36 42 46 44 37 45 35 46 34 36 26 28 24 21 55 57 49 54 57 42 26 21 22 29 27 33 41 42 43 39 42 46 46 47 45 48 44 45 46 50 64 64 60 90 100
40 49 61 64 49 67 45 45 39 36 25 28 25 22 61 75 76 84 58 59 41 40 30 29 36 48 55 80 85 72 67 72 74 74 82 98 65 58 60 76 81 85 90 100 100
48 50 58 53 68 78 54 42 36 37 30 28 29 34 62 62 58 67 64 67 69 53 38 43 54 55 81 99 91 83 90 94 98 89 85 100 82 78 73 75 99 86 78 71 94
53 61 69 73 67 65 51 43 40 36 29 29 35 42 61 55 52 46 42 52 64 56 55 59 57 73 93 93 94 88 94 100 100 100 100 93 84 82 90 90 92 96 86 89 85
58 66 65 64 63 49 44 36 37 33 29 31 51 51 40 33 37 26 27 45 52 54 59 62 69 95 94 95 100 100 100 100 100 100 100 100 99 99 100 100 100 100 100 100 100
54 98 84 90 69 59 46 38 34 30 26 36 50 46 33 23 22 18 24 40 49 59 69 76 98 100 100 100 100 100 100 100 100 100 100 100 100 99 100 100 100 100 92 98 100
55 81 98 87 100 74 49 43 33 30 27 39 30 23 21 19 18 17 21 40 59 60 73 99 100 100 100 100 100 100 100 100 100 100 100 100 100 100 99 93 95 100 100 100 100
66 88 74 97 92 68 48 43 34 30 32 27 17 17 16 16 16 17 19 46 52 66 100 99 100 100 100 100 100 100 98 100 100 100 100 100 100 100 100 100 100 100 100 98 83
76 75 75 80 74 61 55 48 33 29 37 20 17 16 14 14 15 17 20 44 53 83 94 97 94 100 100 100 100 100 100 100 100 100 100 100 100 100 100 100 100 100 100 95 92
90 88 91 91 67 50 68 41 32 30 35 19 17 15 14 15 16 18 23 36 56 99 97 99 100 100 100 100 100 100 100 100 100 100 100 100 100 100 100 100 100 100 100 100 100
72 93 86 97 76 55 64 42 28 35 26 19 16 16 16 15 15 19 26 46 83 87 92 99 100 100 100 95 99 100 100 100 100 100 100 100 100 100 100 100 100 99 91 75 72
78 94 100 100 97 55 48 44 29 38 21 18 18 19 16 18 20 22 34 63 89 94 100 100 100 100 100 100 100 100 100 100 100 100 100 98 85 74 75 67 70 69 65 67 69
100 100 100 100 80 66 53 50 28 31 22 20 21 19 20 24 27 35 65 84 94 100 100 100 100 100 100 100 100 100 100 100 99 98 92 87 81 77 75 71 67 60 51 42 26
100 100 100 100 78 69 61 51 31 26 23 21 21 21 32 40 49 70 80 87 96 98 100 100 100 100 100 99 100 100 100 96 92 76 65 60 61 58 47 47 40 34 22 17 20
100 100 100 94 81 72 62 48 37 27 21 22 22 22 36 51 61 62 67 62 56 61 68 82 96 97 84 71 60 48 32 28 31 37 46 43 43 46 34 24 19 20 25 36 38
100 100 81 80 69 58 54 42 43 24 20 20 24 22 36 53 54 53 50 42 32 29 32 35 36 27 20 18 33 45 46 61 58 50 48 41 25 21 23 30 42 44 41 41 44
100 87 67 65 68 55 51 37 52 22 19 20 26 28 26 34 37 37 33 27 20 22 20 16 17 35 52 58 47 42 41 38 30 26 22 23 24 38 44 40 40 44 47 50 50
66 44 58 76 74 53 45 45 55 24 22 32 37 30 25 25 28 24 16 20 44 46 44 43 53 54 46 40 32 24 21 22 23 23 22 37 46 41 44 48 50 52 52 51 46
49 48 42 56 55 51 37 54 45 32 30 70 53 66 36 35 34 43 51 58 56 57 56 49 41 30 24 22 22 23 23 23 26 40 46 42 50 57 60 60 60 56 54 46 41
37 39 31 42 47 49 39 59 39 43 50 84 83 82 59 77 74 59 62 61 57 46 31 25 26 29 28 27 25 25 34 52 45 43 45 51 60 61 64 62 61 59 54 46 41
33 37 34 42 40 44 44 62 38 62 63 93 90 98 98 89 72 70 63 40 30 26 29 33 29 26 28 30 54 60 52 46 50 54 60 61 64 61 65 62 61 62 55 45 39
31 36 27 28 37 37 37 56 48 85 90 100 99 91 92 68 61 49 32 26 30 37 34 27 25 40 60 69 55 50 53 57 62 68 70 70 66 58 63 66 66 68 60 56 42
21 21 22 24 34 32 38 36 74 80 100 99 88 88 74 70 56 32 29 34 40 38 31 30 52 70 62 56 60 59 62 67 70 72 73 60 67 51 64 75 78 78 69 55 40
14 16 22 27 25 31 50 36 90 97 100 95 92 88 76 76 43 33 36 40 43 41 40 57 78 68 64 63 63 69 73 71 71 72 70 60 69 48 67 83 85 74 62 54 52
13 15 22 27 34 38 43 67 82 100 100 100 99 90 77 56 40 34 42 46 49 54 64 77 87 77 72 68 72 76 79 75 79 77 77 78 88 63 62 80 77 74 65 69 81
16 19 27 34 32 54 66 100 92 100 98 99 100 88 82 51 39 39 47 56 61 72 77 86 88 78 69 74 86 92 74 81 74 70 72 73 75 76 78 71 75 78 82 99 98

GFSSW_250_rhum_048.txt.gz
RH
67 52 50 31 31 24 31 33 34 37 42 33 38 59 71 45 34 32 38 35 48 67 64 32 27 21 17 15 16 17 16 17 13 10 9 18 65 100 100 96 100 100 81 76 33
76 67 33 37 40 41 37 36 36 36 40 41 41 75 90 56 36 34 43 48 58 83 95 66 43 33 26 22 26 21 16 14 19 12 24 100 100 100 100 100 92 100 100 48 32
76 70 48 46 51 52 45 41 44 38 44 42 52 49 52 46 27 32 35 54 59 74 94 80 44 29 31 29 22 23 22 26 25 32 98 100 100 100 99 99 100 100 76 79 42
69 74 69 66 63 52 52 41 38 42 43 47 61 67 63 44 25 23 22 43 48 62 77 95 73 41 37 33 30 32 53 66 42 100 100 100 100 100 100 87 57 82 55 34 42
64 69 70 79 69 62 51 47 40 42 42 44 52 76 62 47 26 18 18 31 45 56 63 76 74 49 38 42 51 85 95 98 79 100 100 100 100 100 99 86 77 90 100 83 58
75 63 69 75 85 73 61 51 39 42 42 52 52 53 54 58 23 19 18 22 30 37 46 55 72 64 58 58 61 97 100 100 97 100 100 100 100 100 81 78 100 83 73 71 89
59 61 64 88 92 77 65 47 39 43 48 52 54 37 43 43 21 19 18 18 19 28 32 47 70 57 57 64 100 100 100 100 100 100 100 100 96 78 95 94 99 74 86 94 85
48 52 70 68 73 77 75 52 44 56 44 54 49 39 39 43 19 19 19 18 18 20 30 58 70 81 94 100 100 100 100 100 100 100 100 98 97 77 81 97 100 100 100 100 95
58 68 69 63 73 85 74 64 49 55 49 54 49 34 38 40 19 19 20 19 19 32 58 74 90 99 100 100 100 100 100 99 100 100 74 82 71 83 83 93 88 100 100 100 100
68 78 97 80 64 68 66 59 48 59 60 46 44 30 37 28 21 20 20 20 24 45 66 84 99 100 100 100 100 100 100 100 99 88 97 93 95 89 100 100 100 100 100 100 85
62 54 69 65 65 52 55 52 53 56 59 59 47 28 33 21 20 19 19 21 28 57 81 94 100 100 100 100 100 98 100 89 80 99 95 99 100 100 100 96 100 100 96 67 100
61 63 56 50 68 54 56 56 60 59 65 52 44 28 29 21 21 19 19 23 43 66 84 94 99 99 100 100 100 89 99 81 74 90 100 100 100 100 100 100 100 100 100 100 100
75 67 69 58 58 50 60 74 50 50 64 68 74 37 31 22 21 21 20 23 41 62 80 98 100 98 100 100 100 85 83 91 100 100 95 99 100 100 100 100 100 97 100 100 100
82 71 59 66 55 61 65 76 62 62 76 82 81 37 35 22 23 24 21 23 41 52 78 100 100 100 100 100 100 84 97 88 98 99 100 100 100 100 100 90 100 100 100 100 98
65 76 73 58 59 62 67 55 62 74 84 94 80 42 34 24 25 30 24 26 43 42 64 75 74 74 87 97 82 88 79 96 94 100 94 100 82 98 100 100 100 98 77 73 76
72 64 71 54 53 71 52 59 72 78 86 93 85 53 34 25 26 43 34 33 40 52 90 82 77 84 82 100 99 100 94 100 100 100 100 99 76 84 95 91 100 74 93 72 55
66 72 87 73 51 70 78 60 74 83 88 100 82 52 37 25 25 50 54 46 65 84 100 93 90 82 100 100 100 100 100 100 100 100 100 100 100 100 90 98 89 84 54 40 24
85 67 70 68 64 66 64 76 59 68 95 100 89 67 40 27 25 54 83 82 94 99 83 79 90 100 100 100 100 100 100 100 100 97 93 100 99 83 65 65 51 35 23 27 40
97 84 81 91 91 67 59 80 92 99 91 96 91 69 36 28 26 49 85 99 100 88 90 91 99 89 98 96 100 91 99 100 90 88 85 66 50 67 45 30 23 29 43 38 33
73 97 98 95 76 87 62 98 100 100 99 100 93 66 34 29 26 38 68 89 98 94 90 66 94 74 72 77 83 86 73 53 46 48 50 42 35 26 24 27 44 43 37 35 37
95 95 100 91 83 73 87 93 100 100 100 100 91 65 36 32 27 32 47 66 72 68 61 42 39 34 38 38 37 66 68 56 40 37 35 26 24 26 43 52 44 41 42 43 47
79 100 100 80 62 84 61 100 100 100 100 100 81 62 39 34 51 54 46 43 55 55 57 39 59 67 50 80 65 49 42 36 31 26 28 28 36 44 52 45 45 47 51 54 68
67 69 67 85 64 97 99 94 100 100 100 100 67 62 39 36 90 84 56 85 71 64 86 95 70 50 50 40 41 32 28 31 33 31 33 52 54 50 48 49 55 52 54 64 63
72 64 48 69 71 93 100 100 100 100 100 97 71 58 41 37 95 77 73 80 100 92 70 50 46 37 32 28 34 36 36 35 32 60 51 62 44 66 58 66 69 72 66 54 59
52 79 90 98 100 100 100 100 100 99 100 100 61 65 46 47 99 100 76 86 98 58 51 50 40 30 35 35 35 33 32 52 74 57 52 50 55 57 61 76 81 79 72 83 63
37 52 98 100 100 77 93 100 100 87 100 72 76 51 46 52 99 100 77 86 100 60 54 36 34 41 36 27 28 38 77 73 57 48 53 58 64 60 64 79 76 90 80 75 80
33 56 87 95 75 72 100 100 93 89 90 68 70 42 45 50 99 88 88 96 85 65 48 35 41 35 31 31 48 83 67 59 54 56 59 66 77 74 74 82 88 72 59 78 66

GFSSW_250_rhum_051.txt.gz
RH
100 100 100 92 90 84 74 62 40 34 41 47 38 35 35 33 46 36 40 25 23 23 35 66 49 36 46 27 24 21 23 21 13 12 11 11 11 11 23 95 100 98 91 96 68
100 100 100 96 89 76 67 68 37 44 41 52 41 37 37 31 37 34 31 24 20 19 31 67 81 52 63 43 35 26 30 18 14 12 11 12 22 36 56 100 100 100 75 98 100
100 100 96 90 84 73 59 58 43 47 58 59 42 41 37 30 36 37 26 19 18 18 27 51 87 78 57 58 58 53 29 22 18 11 13 28 97 94 100 100 100 98 98 100 100
100 100 100 91 84 80 64 49 42 45 61 69 61 46 39 36 33 42 25 16 17 17 30 48 65 81 77 74 66 59 46 32 25 28 36 48 100 100 100 90 100 100 93 100 100
100 100 100 100 83 75 57 41 42 64 75 69 51 40 45 38 33 41 22 17 16 19 29 46 64 70 69 70 58 65 49 25 30 56 79 100 100 100 100 99 73 92 87 100 100
100 100 100 100 85 52 42 40 53 63 67 48 48 39 47 41 31 34 18 18 16 17 20 32 51 68 76 75 50 55 73 88 87 64 100 100 99 100 92 72 69 56 80 100 100
100 100 100 98 74 67 45 51 48 67 68 50 43 43 46 43 36 31 18 16 16 16 18 29 42 62 80 69 66 73 99 100 98 80 100 100 100 89 59 95 99 100 100 100 94
100 100 100 100 89 90 62 60 53 67 65 54 43 49 46 34 34 33 19 17 16 15 17 24 34 60 90 60 68 100 100 100 71 97 100 100 100 100 100 100 100 81 73 84 100
100 100 100 100 77 79 67 55 49 58 52 54 44 52 43 28 33 36 20 17 16 16 24 33 50 84 75 75 99 100 100 100 100 75 100 100 100 100 100 92 78 66 77 76 99
100 100 100 81 89 94 78 48 60 47 61 62 46 50 44 30 34 28 20 19 17 20 41 55 78 89 84 100 100 100 100 100 100 94 71 99 100 94 84 82 95 99 100 100 100
37 49 80 100 100 76 77 54 55 57 61 60 54 52 40 37 32 26 20 22 19 26 51 67 84 89 89 96 100 100 100 100 100 87 87 82 87 90 86 100 100 100 100 100 100
37 35 50 96 100 100 86 55 54 46 61 56 56 50 37 38 32 27 22 25 22 31 65 76 64 80 100 99 99 93 100 100 100 99 98 96 85 100 100 100 100 100 100 100 100
35 27 32 43 64 72 74 73 80 64 61 61 53 50 43 44 39 28 25 28 23 34 71 74 78 82 99 98 89 97 91 90 85 86 100 100 100 100 100 100 100 100 100 89 87
51 49 33 37 43 52 67 86 60 67 65 49 56 54 39 36 43 28 24 36 24 51 76 65 60 68 88 88 89 78 68 84 91 90 100 100 95 89 86 81 70 100 100 100 100
54 58 55 31 38 43 66 59 57 67 73 51 51 58 59 60 41 31 24 43 27 46 62 66 59 64 78 87 72 69 83 90 82 85 100 100 100 99 99 74 62 85 90 100 100
68 52 53 40 39 38 50 61 74 66 86 56 60 54 62 76 48 38 24 46 40 35 59 73 96 88 73 89 84 82 82 88 100 100 100 84 81 79 82 84 96 100 93 90 88
38 40 47 51 47 50 63 70 80 59 74 60 66 54 70 74 57 50 32 41 65 38 49 72 90 88 88 77 99 100 87 88 91 100 88 79 87 78 99 95 86 98 79 72 66
51 52 43 60 47 61 74 69 73 91 74 77 59 63 72 91 67 60 38 32 73 61 71 86 100 99 89 83 100 100 100 99 100 92 94 100 100 100 100 97 100 100 73 64 58
73 63 60 79 72 87 90 65 84 95 82 86 69 63 74 98 87 67 43 30 71 94 80 98 100 100 86 92 100 100 100 100 99 96 100 89 60 74 86 83 74 65 52 38 28
72 72 61 60 59 65 61 66 79 82 93 98 89 77 85 99 85 61 42 29 60 84 100 100 100 100 81 80 83 80 67 93 100 96 100 90 70 82 64 38 41 41 36 26 44
65 60 68 55 52 67 71 87 100 81 87 100 93 92 99 90 91 74 43 27 43 66 88 76 95 78 47 51 88 80 84 69 78 75 65 45 60 56 36 35 29 26 32 47 45
68 59 63 66 62 85 100 100 100 94 90 100 98 87 99 82 79 87 50 29 44 77 82 79 79 90 66 57 40 44 57 53 37 55 77 46 41 28 28 26 27 40 58 47 42
62 83 78 82 70 87 100 100 99 100 96 100 100 99 90 98 92 91 50 37 47 63 51 58 66 65 85 92 55 47 44 49 51 43 36 30 28 27 26 32 48 53 48 52 53
91 60 77 62 90 98 100 100 100 100 90 100 100 100 99 100 97 73 46 42 56 88 50 47 45 65 82 83 58 53 49 40 31 28 29 31 24 27 36 43 54 61 51 56 56
62 51 92 94 90 66 100 100 100 100 100 100 100 100 100 99 100 68 45 38 57 91 63 87 96 92 80 55 44 35 30 30 35 36 35 26 31 37 48 53 64 66 71 48 48
55 96 100 94 97 62 100 100 88 100 100 100 100 100 100 100 89 46 47 41 75 97 68 88 77 62 40 44 39 43 35 31 28 26 30 38 57 49 46 53 71 76 67 80 88
48 91 99 93 100 76 100 100 96 85 99 100 100 100 100 100 80 50 50 54 82 100 88 95 87 57 48 44 38 52 26 26 29 29 51 62 56 58 52 55 64 65 73 74 63

GFSSW_250_rhum_054.txt.gz
RH
100 100 89 90 89 100 100 99 96 79 64 52 29 36 25 32 33 27 44 38 30 20 16 15 18 23 46 47 36 35 38 30 17 14 12 12 15 21 33 53 63 90 59 30 47
100 100 100 97 89 100 100 100 96 74 65 45 31 38 37 38 35 28 39 37 25 18 16 15 17 26 55 46 54 66 61 24 25 15 15 16 17 21 33 80 96 100 69 38 38
92 99 97 89 81 100 100 100 98 81 57 30 33 40 37 44 39 41 35 35 24 16 16 16 21 37 64 48 65 72 63 29 26 19 22 19 17 47 100 54 55 99 92 100 100
100 100 99 86 82 100 100 100 98 80 37 29 35 40 35 44 45 37 44 36 23 16 16 16 20 44 57 53 53 61 45 33 22 23 29 44 52 56 97 86 70 97 97 100 100
100 100 100 100 100 100 100 100 100 64 49 46 37 39 28 33 40 34 41 39 19 17 16 16 19 43 64 54 59 62 60 72 58 76 48 60 68 93 100 100 61 97 100 100 100
100 100 100 100 100 100 100 100 96 68 56 52 38 41 28 37 39 36 38 37 18 17 15 16 19 37 65 88 82 64 90 91 89 50 59 86 89 100 100 52 76 98 100 100 100
95 98 100 100 100 100 100 100 97 93 61 47 40 40 31 40 37 35 36 35 18 18 15 16 20 36 70 85 80 83 61 78 90 78 100 100 100 100 100 74 81 100 100 100 100
100 100 100 100 100 100 100 100 100 100 65 60 43 45 40 38 37 40 34 32 19 18 16 19 22 39 64 84 84 63 51 84 93 100 98 100 100 100 100 100 92 100 100 100 100
100 100 100 100 100 100 100 100 100 74 79 78 59 47 47 43 38 38 35 27 21 20 18 25 34 35 74 74 68 55 66 97 100 100 100 100 100 100 99 100 98 99 100 100 100
98 100 100 100 100 100 100 94 90 100 75 96 85 59 60 52 41 39 33 30 23 22 22 35 51 50 60 73 58 47 87 100 100 100 100 100 100 95 100 96 100 100 100 100 97
100 100 100 100 100 100 48 27 28 57 69 83 58 68 56 49 40 32 30 36 26 28 24 38 67 65 71 78 64 63 100 100 86 93 100 100 100 100 91 100 100 96 96 100 100
95 100 100 100 86 70 27 23 29 34 40 48 58 71 52 58 44 42 30 40 37 37 22 38 59 80 75 71 84 97 100 86 91 86 95 100 100 100 100 100 100 100 100 100 100
100 100 100 100 83 43 40 37 34 28 34 41 55 61 57 50 60 45 29 41 45 41 28 43 72 89 97 94 96 100 100 88 84 100 84 82 100 100 100 100 100 100 100 100 100
100 100 100 100 97 53 63 57 45 35 32 38 46 64 70 50 54 37 34 37 49 44 35 41 81 82 93 99 85 100 100 100 95 100 100 100 94 100 100 100 100 100 100 100 91
89 100 96 100 100 72 75 53 58 63 40 47 52 64 77 59 45 47 31 32 46 44 48 36 75 90 87 91 77 75 80 86 100 100 94 87 84 88 100 100 100 100 100 84 64
60 97 97 71 69 72 72 82 57 49 43 52 59 76 72 62 52 58 47 36 40 48 61 39 51 85 89 86 86 76 71 78 89 100 100 88 85 75 70 67 71 80 82 75 74
62 71 97 100 87 88 72 80 67 48 47 53 85 84 77 69 54 58 54 41 41 59 53 55 48 78 99 91 84 93 80 86 91 100 99 91 67 70 72 88 93 77 87 97 90
70 70 90 97 95 99 90 79 62 74 65 64 82 81 73 58 56 61 55 42 55 48 37 69 70 93 100 100 100 100 98 89 78 69 70 71 56 64 84 76 81 74 79 78 81
65 58 79 100 92 89 88 86 93 99 76 63 81 99 86 61 45 48 56 47 53 42 54 60 83 72 100 100 99 86 87 97 94 78 77 68 79 86 97 94 90 79 59 49 62
85 98 95 82 82 83 78 92 90 85 69 68 76 91 79 78 53 51 67 56 74 49 48 55 66 83 95 100 90 83 84 89 97 90 72 52 69 78 73 83 76 65 63 48 43
86 66 98 71 78 74 84 72 73 78 70 62 72 90 76 68 76 68 76 86 66 73 63 38 79 82 69 61 60 90 82 65 66 71 72 76 84 75 45 30 40 49 43 35 31
86 76 81 72 61 67 71 79 70 77 74 76 74 85 84 80 71 80 86 73 68 74 51 47 47 85 83 57 68 80 63 79 60 68 66 48 40 31 33 36 42 30 27 26 29
45 77 74 72 72 71 68 71 64 68 71 77 70 100 100 79 95 98 88 92 63 60 46 49 41 46 77 66 51 54 41 42 34 53 68 46 42 49 47 41 30 29 37 44 47
80 38 42 56 64 64 63 63 65 85 73 69 64 100 100 100 100 100 100 84 60 56 40 45 59 66 58 44 38 37 46 41 61 56 49 49 42 27 24 30 31 40 57 60 46
48 48 62 50 54 56 67 78 70 86 79 97 91 100 100 100 100 100 91 86 97 54 41 46 88 73 82 73 65 73 70 62 55 48 37 27 27 26 32 36 57 78 76 58 50
28 38 46 51 60 63 74 86 89 100 100 100 100 100 100 100 100 91 100 100 77 56 44 46 62 83 97 99 90 69 40 45 50 38 32 30 27 28 28 69 80 70 57 55 57
20 30 52 44 51 52 87 100 100 100 100 100 100 87 96 100 100 100 100 100 83 62 50 57 68 87 100 89 66 41 43 50 42 32 29 27 32 28 43 59 56 56 62 62 63

GFSSW_250_rhum_057.txt.gz
RH
100 100 100 100 100 100 99 93 81 90 100 98 100 100 65 28 24 25 22 23 33 26 21 17 17 15 15 18 28 38 30 25 19 20 22 20 18 21 32 57 100 99 94 49 37
100 100 100 100 100 100 92 86 86 95 100 100 100 100 61 35 31 26 23 24 32 31 22 17 16 15 16 28 39 50 29 22 32 28 25 26 26 28 61 98 100 100 88 81 46
100 100 100 100 99 99 97 92 90 87 100 100 100 95 51 39 31 27 24 28 32 34 21 17 16 15 17 38 60 68 51 33 46 44 34 48 38 33 43 100 100 100 100 100 95
100 100 100 100 96 91 76 88 96 95 100 100 100 88 66 48 35 32 28 27 34 35 18 18 16 16 20 48 77 88 82 65 50 56 74 66 37 36 40 59 100 95 100 100 100
100 100 100 100 96 87 98 97 99 99 100 100 100 98 78 56 35 34 33 30 32 30 18 19 15 16 21 46 78 66 77 98 65 77 91 74 44 49 34 42 46 82 89 100 100
100 100 100 100 100 100 100 100 87 97 100 100 100 100 73 39 36 45 35 33 35 29 18 19 17 18 22 46 82 78 89 92 100 100 88 77 51 64 70 77 88 90 99 100 100
100 87 87 88 100 100 100 100 100 100 100 100 100 100 57 39 42 45 32 37 37 28 17 19 21 29 24 41 87 91 73 100 81 93 80 95 78 99 100 72 100 100 100 100 100
100 100 100 100 96 100 100 100 100 100 100 100 100 80 47 36 34 40 35 37 40 31 18 21 31 41 30 39 80 97 70 75 89 91 92 100 97 99 97 100 100 100 100 100 100
100 100 100 98 81 90 99 100 100 100 100 100 85 50 24 30 36 40 37 35 38 32 19 23 40 50 43 43 74 84 72 79 93 92 100 100 100 100 100 100 100 100 100 100 100
100 100 81 87 79 97 100 100 100 100 100 97 37 22 25 30 35 43 41 41 34 34 20 25 41 52 62 53 90 96 100 69 87 88 100 100 100 100 100 100 100 98 100 100 100
100 100 70 76 81 99 100 100 100 100 88 57 23 24 28 29 36 42 41 38 34 36 22 32 44 65 93 83 83 70 74 90 87 96 84 100 100 100 100 100 96 89 99 100 100
100 98 79 80 96 90 81 100 100 100 94 57 31 28 29 29 32 42 38 36 39 34 32 37 46 74 99 96 85 74 80 100 88 88 93 99 100 100 100 100 100 100 96 87 100
100 100 100 100 100 96 87 100 100 100 90 57 54 47 35 31 39 42 46 39 35 30 35 35 37 68 88 96 88 83 93 85 80 94 100 100 100 100 100 93 98 100 100 100 100
100 100 100 100 99 100 99 99 100 100 92 49 61 61 46 38 38 50 54 47 36 28 40 34 49 55 72 93 96 92 82 80 82 85 100 100 100 92 100 100 100 100 100 100 100
90 100 100 100 100 100 100 100 100 100 100 85 92 70 42 40 40 58 56 53 42 35 35 38 54 43 70 100 97 95 83 82 85 92 89 78 99 100 100 100 100 100 100 100 100
52 73 76 100 100 100 100 100 100 98 100 100 87 65 53 45 46 55 66 67 58 38 29 40 48 54 61 88 97 100 88 84 83 88 91 99 100 100 94 88 94 94 99 84 74
90 56 70 58 89 100 100 100 100 96 99 96 98 75 58 53 67 61 65 67 58 41 30 48 38 73 67 70 98 100 94 85 82 99 92 84 89 78 100 96 99 96 83 68 61
90 73 70 64 47 94 93 93 98 100 100 98 96 92 70 74 69 77 74 72 58 45 33 40 44 47 87 66 72 91 95 86 95 93 77 80 97 79 72 64 65 69 78 85 78
93 97 87 99 40 70 91 90 100 100 100 100 94 100 84 74 65 76 75 76 65 46 35 37 45 43 72 76 55 81 97 100 98 95 97 93 100 69 60 52 52 49 53 57 62
100 79 97 81 71 48 75 100 100 100 100 100 93 100 96 72 72 75 75 80 72 64 45 38 43 43 47 90 55 51 70 85 92 76 76 85 98 94 76 64 55 51 54 66 70
70 100 90 82 63 44 47 60 92 100 100 100 100 92 94 78 83 86 84 80 79 82 72 43 43 48 53 42 85 76 80 79 86 85 83 81 98 86 73 72 81 69 49 35 44
44 74 90 81 64 66 60 91 100 100 84 99 98 91 84 77 84 86 86 82 91 95 79 50 43 44 56 45 34 72 72 80 89 81 54 42 57 86 78 61 55 60 51 39 34
48 44 76 67 66 83 86 100 100 100 93 98 94 90 92 82 85 83 91 84 98 100 79 51 48 42 46 52 27 31 57 76 71 62 38 26 24 25 41 53 51 37 28 29 28
38 45 44 47 65 86 100 98 100 100 84 100 100 92 80 77 89 86 100 100 100 97 79 65 58 43 43 49 34 35 30 40 42 33 39 55 48 51 47 33 29 31 39 38 28
27 28 45 36 45 62 100 100 100 98 77 87 95 86 87 84 97 99 100 100 98 82 86 78 77 52 39 44 60 57 33 29 27 32 51 57 54 43 30 33 42 33 36 38 32
20 21 32 48 52 62 89 100 96 100 89 85 95 92 96 100 100 100 100 100 77 80 100 98 87 58 41 48 55 63 52 52 40 52 51 46 43 37 36 31 29 26 31 48 62
14 19 33 41 48 57 83 82 80 96 95 96 99 99 91 99 100 96 93 95 99 99 100 95 80 61 51 45 54 81 96 66 60 47 54 52 41 37 28 25 26 38 66 77 67

GFSSW_250_rhum_063.txt.gz
RH
88 91 92 100 100 100 99 100 100 100 100 98 90 89 80 71 59 63 73 74 82 100 92 62 28 17 16 14 18 19 17 23 38 42 33 36 28 28 26 30 75 50 49 89 83
90 96 89 100 94 100 100 100 100 100 100 98 98 86 73 61 60 67 67 88 100 100 78 48 19 16 16 14 20 24 21 32 42 41 45 50 47 40 38 30 87 74 99 100 97
92 98 98 100 94 95 98 99 99 100 99 84 77 86 69 60 60 89 82 100 100 89 63 26 17 16 16 16 25 29 29 44 48 40 53 67 54 45 37 28 58 92 100 100 91
44 82 86 98 95 97 95 97 98 92 91 85 90 63 64 69 83 87 100 99 99 69 33 20 17 18 16 21 27 28 36 48 60 56 52 76 68 60 47 32 27 42 58 78 57
29 70 95 94 96 86 74 90 84 94 84 83 80 64 68 88 100 94 82 94 78 36 22 20 17 20 16 28 32 31 47 54 68 62 59 81 67 78 72 49 40 57 60 46 45
31 34 98 100 99 100 100 98 100 95 97 87 75 63 83 100 100 81 72 80 44 27 23 20 19 20 20 33 35 38 57 62 69 82 69 81 70 70 81 69 48 100 88 61 86
34 37 75 100 100 100 100 100 95 87 85 77 76 88 97 100 95 86 79 69 36 26 25 23 20 23 24 36 38 45 70 80 76 98 75 62 62 71 83 67 55 88 98 90 83
47 35 48 54 100 83 81 99 86 100 98 87 100 92 96 87 90 82 83 51 34 30 27 24 20 28 29 38 45 65 76 84 94 82 89 88 99 65 58 53 48 97 100 100 100
66 46 42 53 58 73 61 77 96 100 100 100 100 98 83 83 84 83 96 47 38 32 29 25 21 30 28 40 53 77 84 80 88 100 97 93 87 83 76 50 54 88 100 100 100
95 58 46 48 51 67 87 88 100 100 100 100 100 87 69 78 86 84 91 68 45 36 32 26 23 29 28 42 50 66 88 96 87 98 100 98 98 100 100 73 98 100 100 100 100
100 93 57 58 58 74 82 75 100 100 100 100 100 96 67 66 77 99 98 94 61 47 36 28 24 29 28 44 50 58 66 89 85 96 100 100 100 100 100 100 100 100 100 100 100
38 80 100 87 63 80 91 63 85 100 100 97 97 95 70 70 77 100 100 82 66 58 40 31 26 29 32 45 52 68 71 77 87 95 94 97 97 100 99 99 100 100 100 100 100
40 50 89 100 100 99 94 75 100 71 100 100 95 92 70 83 75 100 100 91 83 64 45 36 29 31 35 49 56 69 94 80 72 88 100 100 100 99 97 97 84 100 99 100 100
50 49 70 100 100 100 97 84 72 85 58 100 91 100 84 87 81 97 100 100 84 67 52 42 39 40 32 53 63 73 95 91 77 72 81 91 94 94 100 100 100 96 97 100 97
69 58 55 94 100 100 100 100 93 96 83 87 88 96 69 85 75 99 100 100 86 71 56 50 47 39 38 37 59 66 76 91 77 80 92 70 88 92 81 69 97 100 100 100 100
47 54 61 55 75 99 100 100 98 100 95 95 100 94 93 88 81 80 100 100 90 82 67 60 56 44 47 36 34 56 67 71 97 100 89 78 88 87 93 100 87 87 77 76 81
69 77 51 62 53 66 99 100 100 95 100 92 100 100 94 77 89 100 100 100 95 90 76 69 56 50 51 40 38 35 66 70 85 95 100 99 83 88 74 74 92 93 96 85 82
72 55 60 57 73 58 81 100 100 100 100 100 100 100 100 76 94 97 100 100 98 90 78 72 58 62 47 42 34 39 44 79 76 97 100 100 100 87 100 96 78 86 83 85 77
57 56 57 70 83 58 65 78 100 100 100 100 100 100 100 95 96 100 100 96 100 86 90 80 61 60 52 44 39 36 43 43 72 84 83 100 100 66 92 100 99 100 87 80 81
27 52 46 54 87 59 56 70 100 100 100 100 100 100 100 100 95 100 100 100 97 88 98 84 72 67 58 50 42 36 37 38 42 72 96 99 100 100 81 77 86 99 100 86 79
20 23 40 54 66 55 48 73 91 100 100 100 100 100 100 100 100 100 100 100 91 96 99 78 78 72 59 52 47 38 38 38 38 48 87 94 100 99 83 100 86 81 89 96 100
16 16 29 43 40 37 50 68 100 100 100 100 100 100 100 100 100 100 100 100 91 100 94 80 88 73 64 57 52 42 41 43 42 44 55 100 100 94 91 96 98 92 78 91 89
10 15 23 32 25 31 64 60 76 81 99 100 100 100 100 100 100 100 100 100 100 85 92 85 95 85 75 68 54 51 45 51 40 41 54 67 99 67 77 90 89 62 54 51 52
6 10 17 25 20 31 45 56 64 66 69 100 100 100 100 100 98 100 100 100 96 85 77 96 100 94 80 68 61 58 54 44 43 44 40 60 63 47 53 69 83 84 69 65 58
5 5 10 15 12 22 34 48 55 60 58 100 100 100 100 100 100 100 100 100 82 78 79 97 100 99 87 71 64 63 72 49 47 45 47 68 75 57 61 54 82 97 48 43 45
5 4 5 11 19 22 29 38 51 60 64 100 100 100 100 100 100 100 100 98 84 83 86 99 100 87 92 86 78 81 92 58 45 42 46 53 99 67 55 57 61 69 48 43 42
5 6 5 8 15 18 25 41 56 67 69 79 100 100 100 100 100 100 100 100 95 93 100 93 94 91 89 80 74 100 64 78 48 42 45 49 86 100 76 64 64 46 57 57 48